Terminal Aerodrome Forecast
Issued by NWS

Home | Current Version | Previous Version | Text Only | Print | Product List | Glossary On
Versions: 1 2 3 4 5 6 7 8 9 10 11 12 13 14 15
922
FTUS46 KMTR 301120
TAFOAK
TAF
KOAK 301120Z 3012/0118 VRB05KT P6SM FEW015 WS015/02025KT
     FM301700 26008KT P6SM SKC
     FM302100 28014G21KT P6SM SKC
     FM010100 27011G18KT P6SM SKC
     FM010400 28006KT P6SM SKC
     FM010800 VRB03KT P6SM SKC=

USA.gov is the U.S. government's official web portal to all federal, state and local government web resources and services.